When you browse on this site, cookies collect data to enhance your experience and personalize the content and advertising you see.
Visit our Privacy Policy to learn more. By continuing to use the site, you agree to this use of cookies and data.

Stündliche Wetter Andora

Heute, 12 August, Mittwoch

Zeit Temperatur Niederschläge Wind Luftdruck Luftfeuchtigkeit
00:00 +15°C° 0 mm 1 m/S 625 mmHg 62%
01:00 +15°C° 0 mm 1 m/S 625 mmHg 63%
02:00 +14°C° 0 mm 2 m/S 625 mmHg 64%
03:00 +14°C° 0 mm 2 m/S 625 mmHg 66%
04:00 +15°C° 0 mm 2 m/S 625 mmHg 63%
05:00 +15°C° 0 mm 2 m/S 625 mmHg 60%
06:00 +15°C° 0 mm 2 m/S 625 mmHg 58%
07:00 +17°C° 0 mm 2 m/S 626 mmHg 54%
08:00 +18°C° 0 mm 3 m/S 626 mmHg 49%
09:00 +20°C° 0 mm 3 m/S 627 mmHg 45%
10:00 +20°C° 0.3 mm 3 m/S 627 mmHg 50%
11:00 +20°C° 0.3 mm 4 m/S 627 mmHg 55%
12:00 +20°C° 0.3 mm 4 m/S 627 mmHg 60%
13:00 +20°C° 1.3 mm 3 m/S 626 mmHg 64%
14:00 +19°C° 1.3 mm 2 m/S 625 mmHg 67%
15:00 +19°C° 1.3 mm 2 m/S 625 mmHg 71%
16:00 +19°C° 1.1 mm 1 m/S 625 mmHg 76%
17:00 +18°C° 1.1 mm 1 m/S 625 mmHg 81%
18:00 +16°C° 1.1 mm 1 m/S 625 mmHg 87%
19:00 +15°C° 0.1 mm 1 m/S 625 mmHg 86%
20:00 +14°C° 0.1 mm 1 m/S 625 mmHg 86%
21:00 +13°C° 0.1 mm 1 m/S 625 mmHg 86%
22:00 +13°C° 0 mm 1 m/S 625 mmHg 85%
23:00 +13°C° 0 mm 1 m/S 625 mmHg 84%

Morgen, 13 August, Donnerstag

Zeit Temperatur Niederschläge Wind Luftdruck Luftfeuchtigkeit
00:00 +12°C° 0 mm 1 m/S 624 mmHg 83%
01:00 +12°C° 0 mm 1 m/S 624 mmHg 81%
02:00 +12°C° 0 mm 1 m/S 624 mmHg 79%
03:00 +12°C° 0 mm 1 m/S 624 mmHg 78%
04:00 +13°C° 0 mm 1 m/S 625 mmHg 78%
05:00 +13°C° 0 mm 1 m/S 625 mmHg 78%
06:00 +13°C° 0 mm 1 m/S 625 mmHg 78%
07:00 +15°C° 0 mm 1 m/S 626 mmHg 70%
08:00 +19°C° 0 mm 1 m/S 627 mmHg 62%
09:00 +20°C° 0 mm 2 m/S 628 mmHg 55%
10:00 +21°C° 0 mm 2 m/S 629 mmHg 51%
11:00 +23°C° 0 mm 2 m/S 629 mmHg 47%
12:00 +22°C° 0 mm 3 m/S 629 mmHg 43%
13:00 +22°C° 0.2 mm 3 m/S 629 mmHg 44%
14:00 +22°C° 0.2 mm 3 m/S 628 mmHg 46%
15:00 +22°C° 0.2 mm 3 m/S 628 mmHg 47%
16:00 +21°C° 0.2 mm 2 m/S 628 mmHg 54%
17:00 +20°C° 0.2 mm 2 m/S 627 mmHg 60%
18:00 +19°C° 0.2 mm 1 m/S 627 mmHg 66%
19:00 +18°C° 0 mm 1 m/S 626 mmHg 70%
20:00 +15°C° 0 mm 1 m/S 626 mmHg 74%
21:00 +14°C° 0 mm 1 m/S 626 mmHg 77%
22:00 +13°C° 0 mm 1 m/S 626 mmHg 78%
23:00 +13°C° 0 mm 1 m/S 626 mmHg 79%

übermorgen, 14 August, Freitag

Zeit Temperatur Niederschläge Wind Luftdruck Luftfeuchtigkeit
00:00 +13°C° 0 mm 1 m/S 626 mmHg 80%
01:00 +12°C° 0 mm 1 m/S 626 mmHg 80%
02:00 +12°C° 0 mm 1 m/S 626 mmHg 81%
03:00 +12°C° 0 mm 1 m/S 626 mmHg 81%
04:00 +13°C° 0 mm 1 m/S 626 mmHg 80%
05:00 +13°C° 0 mm 1 m/S 626 mmHg 79%
06:00 +14°C° 0 mm 1 m/S 626 mmHg 78%
07:00 +16°C° 0 mm 1 m/S 627 mmHg 67%
08:00 +20°C° 0 mm 1 m/S 628 mmHg 56%
09:00 +23°C° 0 mm 1 m/S 629 mmHg 45%
10:00 +24°C° 0 mm 2 m/S 629 mmHg 43%
11:00 +24°C° 0 mm 2 m/S 629 mmHg 41%
12:00 +25°C° 0 mm 2 m/S 629 mmHg 39%
13:00 +24°C° 0.1 mm 2 m/S 629 mmHg 41%
14:00 +24°C° 0.1 mm 2 m/S 628 mmHg 43%
15:00 +24°C° 0.1 mm 3 m/S 628 mmHg 46%
16:00 +21°C° 0.2 mm 2 m/S 627 mmHg 53%
17:00 +21°C° 0.2 mm 1 m/S 627 mmHg 61%
18:00 +20°C° 0.2 mm 1 m/S 626 mmHg 68%
19:00 +19°C° 0 mm 1 m/S 626 mmHg 73%
20:00 +16°C° 0 mm 1 m/S 625 mmHg 78%
21:00 +14°C° 0 mm 1 m/S 625 mmHg 83%
22:00 +14°C° 0 mm 1 m/S 625 mmHg 83%
23:00 +14°C° 0 mm 1 m/S 625 mmHg 83%

15 August, Samstag

Zeit Temperatur Niederschläge Wind Luftdruck Luftfeuchtigkeit
00:00 +14°C° 0 mm 1 m/S 624 mmHg 83%
01:00 +13°C° 0 mm 1 m/S 624 mmHg 83%
02:00 +13°C° 0 mm 1 m/S 624 mmHg 82%
03:00 +13°C° 0 mm 1 m/S 624 mmHg 82%
04:00 +14°C° 0 mm 1 m/S 624 mmHg 80%
05:00 +14°C° 0 mm 1 m/S 624 mmHg 78%
06:00 +15°C° 0 mm 1 m/S 624 mmHg 76%
07:00 +17°C° 0 mm 2 m/S 625 mmHg 64%
08:00 +20°C° 0 mm 2 m/S 626 mmHg 51%
09:00 +24°C° 0 mm 2 m/S 627 mmHg 39%
10:00 +24°C° 0 mm 2 m/S 627 mmHg 37%
11:00 +25°C° 0 mm 3 m/S 627 mmHg 35%
12:00 +26°C° 0 mm 4 m/S 627 mmHg 33%
13:00 +26°C° 0 mm 3 m/S 626 mmHg 37%
14:00 +25°C° 0 mm 3 m/S 626 mmHg 41%
15:00 +25°C° 0 mm 3 m/S 625 mmHg 45%
16:00 +22°C° 0.2 mm 3 m/S 625 mmHg 53%
17:00 +21°C° 0.2 mm 2 m/S 624 mmHg 61%
18:00 +21°C° 0.2 mm 1 m/S 623 mmHg 69%
19:00 +19°C° 0.1 mm 1 m/S 623 mmHg 73%
20:00 +16°C° 0.1 mm 1 m/S 623 mmHg 78%
21:00 +15°C° 0.1 mm 1 m/S 623 mmHg 82%
22:00 +14°C° 0 mm 1 m/S 623 mmHg 82%
23:00 +14°C° 0 mm 1 m/S 622 mmHg 82%

16 August, Sonntag

Zeit Temperatur Niederschläge Wind Luftdruck Luftfeuchtigkeit
00:00 +14°C° 0 mm 1 m/S 622 mmHg 82%
01:00 +13°C° 0 mm 1 m/S 622 mmHg 83%
02:00 +13°C° 0 mm 1 m/S 622 mmHg 84%
03:00 +13°C° 0 mm 1 m/S 622 mmHg 85%
04:00 +12°C° 0 mm 0 m/S 622 mmHg 85%
05:00 +12°C° 0 mm 0 m/S 622 mmHg 85%
06:00 +12°C° 0 mm 0 m/S 622 mmHg 86%
07:00 +15°C° 0 mm 1 m/S 623 mmHg 76%
08:00 +18°C° 0 mm 1 m/S 624 mmHg 66%
09:00 +19°C° 0 mm 2 m/S 625 mmHg 56%
10:00 +20°C° 0 mm 2 m/S 625 mmHg 51%
11:00 +20°C° 0 mm 3 m/S 626 mmHg 47%
12:00 +21°C° 0 mm 3 m/S 626 mmHg 42%
13:00 +21°C° 0 mm 3 m/S 626 mmHg 44%
14:00 +21°C° 0 mm 3 m/S 625 mmHg 45%
15:00 +20°C° 0 mm 3 m/S 625 mmHg 47%
16:00 +19°C° 0 mm 3 m/S 625 mmHg 53%
17:00 +18°C° 0 mm 2 m/S 624 mmHg 59%
18:00 +18°C° 0 mm 1 m/S 624 mmHg 66%
19:00 +15°C° 0 mm 1 m/S 624 mmHg 70%
20:00 +14°C° 0 mm 1 m/S 623 mmHg 74%
21:00 +12°C° 0 mm 1 m/S 623 mmHg 79%
22:00 +12°C° 0 mm 1 m/S 623 mmHg 79%
23:00 +11°C° 0 mm 0 m/S 623 mmHg 79%

17 August, Montag

Zeit Temperatur Niederschläge Wind Luftdruck Luftfeuchtigkeit
00:00 +10°C° 0 mm 0 m/S 623 mmHg 79%
01:00 +11°C° 0 mm 1 m/S 623 mmHg 78%
02:00 +11°C° 0 mm 1 m/S 622 mmHg 77%
03:00 +11°C° 0 mm 1 m/S 622 mmHg 75%
04:00 +11°C° 0 mm 1 m/S 623 mmHg 75%
05:00 +12°C° 0 mm 1 m/S 623 mmHg 75%
06:00 +12°C° 0 mm 1 m/S 623 mmHg 75%
07:00 +14°C° 0 mm 1 m/S 624 mmHg 67%
08:00 +16°C° 0 mm 2 m/S 625 mmHg 59%
09:00 +18°C° 0 mm 2 m/S 626 mmHg 51%
10:00 +19°C° 0 mm 2 m/S 626 mmHg 51%
11:00 +19°C° 0 mm 2 m/S 626 mmHg 50%
12:00 +20°C° 0 mm 3 m/S 626 mmHg 50%
13:00 +19°C° 0.2 mm 2 m/S 626 mmHg 53%
14:00 +19°C° 0.2 mm 2 m/S 625 mmHg 57%
15:00 +19°C° 0.2 mm 2 m/S 625 mmHg 60%
16:00 +19°C° 0.2 mm 1 m/S 625 mmHg 64%
17:00 +18°C° 0.2 mm 1 m/S 624 mmHg 67%
18:00 +16°C° 0.2 mm 1 m/S 624 mmHg 70%
19:00 +14°C° 0 mm 0 m/S 624 mmHg 73%
20:00 +12°C° 0 mm 0 m/S 624 mmHg 75%
21:00 +11°C° 0 mm 0 m/S 623 mmHg 77%
22:00 +11°C° 0 mm 0 m/S 623 mmHg 76%
23:00 +11°C° 0 mm 1 m/S 623 mmHg 74%
Mehr zeigen